OHFUK EDXB-EDAZ

Flight info

Callsign OHFUK
Flight time 1h 1m
Altitude 7000
Route OSTOR L619 PITEN Z998 NISGA
Aircraft PC12/L-SDFGRWY/S

Departure

Time 2026-05-04 15:57
Airport Heide-Büsum Airport (EDXB)

Arrival

Time 2026-05-04 16:59
Airport Schönhagen Airfield (EDAZ)
Time Latitude Longitude Altitude Speed Heading
2026-05-04 15:43 54.15373 8.89600 12 ft 0 kts 185°
2026-05-04 15:53 54.15370 8.89599 12 ft 2 kts 182°
2026-05-04 15:53 54.15353 8.89647 12 ft 8 kts 79°
2026-05-04 15:53 54.15381 8.89726 12 ft 10 kts 107°
2026-05-04 15:54 54.15359 8.89839 12 ft 10 kts 111°
2026-05-04 15:54 54.15334 8.89959 12 ft 11 kts 108°
2026-05-04 15:54 54.15309 8.90084 12 ft 11 kts 109°
2026-05-04 15:54 54.15282 8.90216 12 ft 13 kts 109°
2026-05-04 15:55 54.15251 8.90375 12 ft 14 kts 108°
2026-05-04 15:55 54.15217 8.90534 12 ft 14 kts 109°
2026-05-04 15:55 54.15199 8.90662 12 ft 6 kts 56°
2026-05-04 15:55 54.15230 8.90681 12 ft 7 kts
2026-05-04 15:56 54.15249 8.90617 12 ft 5 kts 290°
2026-05-04 15:56 54.15249 8.90614 12 ft 0 kts 290°
2026-05-04 15:56 54.15268 8.90522 12 ft 31 kts 288°
2026-05-04 15:57 54.15404 8.89852 13 ft 87 kts 288°
2026-05-04 15:57 54.15562 8.88810 313 ft 95 kts 268°
2026-05-04 15:57 54.15104 8.88180 706 ft 99 kts 174°
2026-05-04 15:57 54.14521 8.88832 1047 ft 108 kts 138°
2026-05-04 15:58 54.13974 8.89730 1358 ft 114 kts 141°
2026-05-04 15:58 54.13212 8.90244 1554 ft 131 kts 188°
2026-05-04 15:58 54.12279 8.90439 1855 ft 146 kts 150°
2026-05-04 15:58 54.11386 8.91413 2226 ft 159 kts 147°
2026-05-04 15:59 54.10438 8.92327 2743 ft 157 kts 158°
2026-05-04 15:59 54.09407 8.92958 3273 ft 158 kts 163°
2026-05-04 15:59 54.08348 8.93484 3795 ft 160 kts 165°
2026-05-04 15:59 54.07263 8.93991 4300 ft 162 kts 166°
2026-05-04 16:00 54.06175 8.94494 4821 ft 163 kts 166°
2026-05-04 16:00 54.05084 8.95001 5342 ft 165 kts 166°
2026-05-04 16:00 54.03987 8.95512 5867 ft 166 kts 166°
2026-05-04 16:00 54.02869 8.96033 6398 ft 168 kts 166°
2026-05-04 16:01 54.01737 8.96562 6900 ft 172 kts 166°
2026-05-04 16:01 54.00476 8.97145 6901 ft 200 kts 166°
2026-05-04 16:01 53.99096 8.97778 6902 ft 215 kts 166°
2026-05-04 16:01 53.97615 8.98462 6903 ft 224 kts 165°
2026-05-04 16:02 53.96100 8.99165 6901 ft 230 kts 165°
2026-05-04 16:02 53.94540 8.99892 6900 ft 233 kts 165°
2026-05-04 16:02 53.91406 9.01351 6903 ft 236 kts 165°
2026-05-04 16:03 53.89818 9.02090 6900 ft 236 kts 165°
2026-05-04 16:03 53.88230 9.02828 6899 ft 237 kts 165°
2026-05-04 16:03 53.86646 9.03563 6898 ft 237 kts 165°
2026-05-04 16:03 53.85057 9.04301 6898 ft 236 kts 165°
2026-05-04 16:04 53.83572 9.05382 6899 ft 237 kts 148°
2026-05-04 16:04 53.81487 9.09643 6901 ft 238 kts 120°
2026-05-04 16:04 53.80681 9.12095 6899 ft 238 kts 120°
2026-05-04 16:05 53.79868 9.14556 6899 ft 239 kts 120°
2026-05-04 16:05 53.79050 9.17015 6901 ft 239 kts 120°
2026-05-04 16:05 53.77430 9.21868 6898 ft 236 kts 120°
2026-05-04 16:06 53.76619 9.24289 6898 ft 234 kts 120°
2026-05-04 16:06 53.74485 9.30648 6901 ft 233 kts 120°
2026-05-04 16:07 53.73423 9.33810 6903 ft 233 kts 120°
2026-05-04 16:07 53.71051 9.40866 6900 ft 232 kts 120°
2026-05-04 16:08 53.70256 9.43228 6900 ft 232 kts 120°
2026-05-04 16:08 53.67873 9.50289 6899 ft 232 kts 120°
2026-05-04 16:09 53.66278 9.54998 6898 ft 232 kts 120°
2026-05-04 16:09 53.64696 9.59712 6902 ft 232 kts 118°
2026-05-04 16:10 53.63261 9.64597 6904 ft 233 kts 116°
2026-05-04 16:11 53.61140 9.71960 6899 ft 232 kts 117°
2026-05-04 16:11 53.60426 9.74395 6901 ft 232 kts 117°
2026-05-04 16:12 53.58269 9.81691 6899 ft 232 kts 117°
2026-05-04 16:12 53.56094 9.89002 6900 ft 232 kts 117°
2026-05-04 16:13 53.54653 9.93834 6901 ft 232 kts 117°
2026-05-04 16:13 53.53196 9.98709 6902 ft 233 kts 117°
2026-05-04 16:14 53.51748 10.03541 6946 ft 230 kts 117°
2026-05-04 16:14 53.50547 10.07545 6994 ft 230 kts 117°
2026-05-04 16:15 53.48375 10.14766 6998 ft 232 kts 117°
2026-05-04 16:16 53.46909 10.19582 7000 ft 232 kts 118°
2026-05-04 16:16 53.44663 10.26715 7000 ft 232 kts 118°
2026-05-04 16:17 53.43163 10.31482 7000 ft 232 kts 118°
2026-05-04 16:18 53.40899 10.38677 7001 ft 232 kts 118°
2026-05-04 16:18 53.40156 10.41034 7002 ft 232 kts 118°
2026-05-04 16:19 53.37881 10.48233 7000 ft 232 kts 118°
2026-05-04 16:19 53.36373 10.52991 7002 ft 232 kts 118°
2026-05-04 16:20 53.34098 10.60152 6999 ft 232 kts 118°
2026-05-04 16:20 53.32589 10.64893 6999 ft 232 kts 118°
2026-05-04 16:21 53.30318 10.72002 7000 ft 232 kts 119°
2026-05-04 16:22 53.28848 10.76594 7001 ft 232 kts 119°
2026-05-04 16:22 53.26556 10.83738 7000 ft 233 kts 119°
2026-05-04 16:23 53.24280 10.90815 6999 ft 232 kts 119°
2026-05-04 16:24 53.21232 11.00267 7000 ft 232 kts 119°
2026-05-04 16:25 53.19710 11.04975 6999 ft 232 kts 119°
2026-05-04 16:26 53.16656 11.14389 7000 ft 231 kts 119°
2026-05-04 16:26 53.14359 11.21454 7001 ft 232 kts 119°
2026-05-04 16:27 53.12818 11.26182 6999 ft 232 kts 119°
2026-05-04 16:28 53.10505 11.33251 7000 ft 232 kts 119°
2026-05-04 16:28 53.08191 11.40308 7001 ft 232 kts 119°
2026-05-04 16:29 53.05094 11.49713 7000 ft 232 kts 119°
2026-05-04 16:30 53.03063 11.56991 7000 ft 232 kts 107°
2026-05-04 16:31 53.02190 11.62147 7000 ft 232 kts 106°
2026-05-04 16:31 53.00908 11.69929 7000 ft 233 kts 106°
2026-05-04 16:32 52.99604 11.77696 6999 ft 233 kts 106°
2026-05-04 16:33 52.98348 11.82574 6999 ft 231 kts 128°
2026-05-04 16:33 52.96376 11.86765 7000 ft 232 kts 127°
2026-05-04 16:34 52.94453 11.91063 7001 ft 232 kts 127°
2026-05-04 16:34 52.93484 11.93218 7001 ft 232 kts 127°
2026-05-04 16:35 52.90570 11.99625 6998 ft 232 kts 128°
2026-05-04 16:35 52.87660 12.05965 6999 ft 232 kts 128°
2026-05-04 16:36 52.86682 12.08092 7000 ft 232 kts 128°
2026-05-04 16:36 52.84724 12.12349 7001 ft 232 kts 128°
2026-05-04 16:37 52.82780 12.16573 6999 ft 230 kts 128°
2026-05-04 16:37 52.81804 12.18688 6999 ft 231 kts 128°
2026-05-04 16:37 52.79859 12.22901 7001 ft 232 kts 128°
2026-05-04 16:38 52.77901 12.27136 6999 ft 232 kts 128°
2026-05-04 16:39 52.75043 12.33299 7000 ft 229 kts 128°
2026-05-04 16:39 52.73113 12.37458 7001 ft 231 kts 128°
2026-05-04 16:40 52.71159 12.41641 6998 ft 230 kts 130°
2026-05-04 16:40 52.68643 12.44795 7000 ft 229 kts 150°
2026-05-04 16:41 52.65916 12.47492 6999 ft 230 kts 149°
2026-05-04 16:41 52.61904 12.51521 7000 ft 230 kts 149°
2026-05-04 16:42 52.57808 12.55577 7000 ft 230 kts 149°
2026-05-04 16:43 52.55052 12.58286 6999 ft 230 kts 150°
2026-05-04 16:43 52.52321 12.60960 6999 ft 230 kts 150°
2026-05-04 16:43 52.50943 12.62311 7001 ft 230 kts 150°
2026-05-04 16:44 52.45677 12.67452 6999 ft 201 kts 150°
2026-05-04 16:45 52.43301 12.69769 7000 ft 200 kts 150°
2026-05-04 16:46 52.39716 12.73268 7001 ft 201 kts 150°
2026-05-04 16:46 52.37325 12.75598 7002 ft 201 kts 150°
2026-05-04 16:47 52.34936 12.77923 6999 ft 201 kts 150°
2026-05-04 16:47 52.32507 12.80281 6526 ft 204 kts 150°
2026-05-04 16:48 52.28861 12.83815 5499 ft 201 kts 150°
2026-05-04 16:48 52.27671 12.84969 5217 ft 200 kts 150°
2026-05-04 16:49 52.25361 12.87429 4451 ft 197 kts 134°
2026-05-04 16:49 52.24329 12.91495 3571 ft 195 kts 104°
2026-05-04 16:50 52.23665 12.95724 2689 ft 190 kts 105°
2026-05-04 16:50 52.23008 12.99813 1873 ft 178 kts 105°
2026-05-04 16:51 52.22454 13.03262 1869 ft 146 kts 105°
2026-05-04 16:51 52.22198 13.04865 1872 ft 150 kts 105°
2026-05-04 16:51 52.21651 13.08257 1870 ft 153 kts 105°
2026-05-04 16:52 52.20842 13.11443 1856 ft 153 kts 130°
2026-05-04 16:52 52.20105 13.12667 1824 ft 154 kts 138°
2026-05-04 16:53 52.18584 13.15226 1705 ft 156 kts 126°
2026-05-04 16:53 52.18549 13.19830 1363 ft 134 kts 56°
2026-05-04 16:54 52.19056 13.21004 1388 ft 120 kts 54°
2026-05-04 16:55 52.21074 13.23452 1256 ft 102 kts 310°
2026-05-04 16:55 52.21180 13.21334 1282 ft 97 kts 268°
2026-05-04 16:56 52.21195 13.19178 1242 ft 88 kts 270°
2026-05-04 16:56 52.20938 13.16281 955 ft 91 kts 227°
2026-05-04 16:57 52.20345 13.16018 985 ft 90 kts 179°
2026-05-04 16:57 52.19541 13.16982 829 ft 97 kts 100°
2026-05-04 16:58 52.20595 13.17288 293 ft 85 kts 262°
2026-05-04 16:58 52.20452 13.16428 140 ft 73 kts 256°
2026-05-04 16:59 52.20306 13.15438 138 ft 8 kts 300°
2026-05-04 17:00 52.20381 13.15308 140 ft 9 kts 331°
2026-05-04 17:00 52.20434 13.15167 140 ft 0 kts 198°
2026-05-04 17:01 52.20401 13.15145 140 ft 6 kts 179°
2026-05-04 17:01 52.20384 13.15150 140 ft 4 kts 188°
2026-05-04 17:02 52.20404 13.15218 140 ft 12 kts 72°
2026-05-04 17:02 52.20391 13.15254 140 ft 5 kts 261°
2026-05-04 17:03 52.20384 13.15218 140 ft 0 kts 255°